Flag for Germany Weather past 2 weeks in Datteln, North Rhine-Westphalia, Germany

Now
59 °F

Scattered clouds.


Feels Like: 57 °F
Forecast: 42 / 52 °F
Wind: 9 mph from West

Location: Dortmund / Wickede

Current Time: Apr 26, 2015 at 3:30:53 PM

Latest Report: Apr 26, 2015 at 2:50 PM


Visibility: N/A

Pressure: 29.71 "Hg

Humidity: 68%

Dew point: 48 °F

Location of DattelnLocation

Historic Weather in Datteln — Graph

°F

Datteln temperature yesterday

Maximum temperature yesterday: 57 °F (at 12:50 PM)
Minimum temperature yesterday: 50 °F (at 9:20 PM)
Average temperature yesterday: 55 °F

Past Weeks' High & Low Weather Summary

 TemperatureHumidityPressure
High73 °F (Apr 15, 4:20 PM)93% (Apr 16, 8:20 AM)30.45 "Hg (Apr 16, 8:20 AM)
Low34 °F (Apr 18, 5:20 AM)18% (Apr 21, 4:50 PM)29.71 "Hg (Apr 26, 5:20 AM)
Average53 °F59%30.15 "Hg
* Reported Apr 11 2:20 PM — Apr 26 2:20 PM, Datteln, Weather by CustomWeather, © 2015

Note: Actual official high and low records may vary slightly from our data, if they occured in-between our weather recording intervals... More about our weather records

Advertising

Datteln weather history for previous 24 hours

 ConditionsComfort  
Time TempWeatherWind HumidityBarometerVisibility
2:20 PM
Sun, Apr 26
63 °FScattered clouds.9 mph64%29.71 "HgN/A
1:50 PM61 °FScattered clouds.8 mph68%29.71 "HgN/A
1:20 PM59 °FScattered clouds.10 mph68%29.71 "HgN/A
12:50 PM61 °FScattered clouds.12 mph72%29.71 "HgN/A
12:20 PM57 °FScattered clouds.10 mph77%29.74 "HgN/A
11:50 AM57 °FSprinkles. Scattered clouds.12 mph72%29.74 "HgN/A
11:20 AM57 °FScattered clouds.9 mph77%29.74 "HgN/A
10:50 AM59 °FScattered clouds.12 mph72%29.74 "HgN/A
10:20 AM57 °FScattered clouds.10 mph77%29.74 "HgN/A
9:50 AM55 °FScattered clouds.12 mph82%29.74 "HgN/A
9:20 AM55 °FScattered clouds.13 mph82%29.74 "HgN/A
8:50 AM55 °FScattered clouds.10 mph82%29.74 "HgN/A
8:20 AM54 °FScattered clouds.8 mph82%29.74 "HgN/A
7:50 AM54 °FScattered clouds.9 mph82%29.71 "HgN/A
7:20 AM52 °FPartly sunny.7 mph88%29.71 "HgN/A
6:50 AM52 °FPassing clouds.7 mph88%29.71 "HgN/A
6:20 AM52 °FPassing clouds.6 mph88%29.71 "HgN/A
5:50 AM52 °FClear.5 mph88%29.71 "Hg10 mi
5:20 AM52 °FSprinkles. Passing clouds.6 mph88%29.71 "HgN/A
10:50 PM
Sat, Apr 25
52 °FClear.8 mph82%29.77 "Hg10 mi
10:20 PM52 °FClear.7 mph82%29.77 "Hg10 mi
9:50 PM52 °FClear.7 mph82%29.77 "Hg10 mi
9:20 PM50 °FSunny.6 mph82%29.77 "Hg10 mi
8:50 PM54 °FSunny.8 mph82%29.77 "Hg10 mi
8:20 PM55 °FSunny.9 mph77%29.74 "Hg10 mi
7:50 PM55 °FSunny.9 mph77%29.74 "Hg10 mi
7:20 PM57 °FPassing clouds.12 mph72%29.74 "HgN/A
6:50 PM57 °FPartly sunny.10 mph72%29.74 "HgN/A
6:20 PM55 °FPartly sunny.12 mph77%29.74 "HgN/A
5:50 PM55 °FLight rain. Partly sunny.9 mph82%29.74 "HgN/A
5:20 PM57 °FPartly sunny.8 mph77%29.74 "HgN/A
4:50 PM57 °FScattered clouds.7 mph77%29.74 "HgN/A
4:20 PM57 °FLight rain. Scattered clouds.7 mph77%29.74 "HgN/A
3:50 PM57 °FLight rain. Scattered clouds.8 mph72%29.74 "HgN/A
3:20 PM57 °FBroken clouds.9 mph67%29.74 "HgN/A
Weather by CustomWeather, © 2015

See weather overviewHow to use our weather pages